Radiation Dose at Monitoring Post of Fukushima Daini Nuclear Power Station
Date,Time,MP-1(microSv/h),MP-2(microSv/h),MP-3(microSv/h),MP-4(microSv/h),MP-5(microSv/h),MP-6(microSv/h),MP-7(microSv/h),Wind Direction,Wind Velocity(m/s),Rain
2016/02/11,00:00,0.455,0.265,0.479,0.433,0.396,0.219,0.191,west,1.3,No
2016/02/11,00:10,0.457,0.265,0.479,0.433,0.395,0.218,0.192,west-southwest,1.5,No
2016/02/11,00:20,0.455,0.264,0.479,0.434,0.398,0.218,0.192,west-southwest,1.7,No
2016/02/11,00:30,0.455,0.266,0.476,0.433,0.397,0.218,0.192,west,2.9,No
2016/02/11,00:40,0.454,0.264,0.480,0.434,0.396,0.218,0.192,west,2.9,No
2016/02/11,00:50,0.455,0.265,0.479,0.433,0.397,0.217,0.191,west-northwest,3.6,No
2016/02/11,01:00,0.454,0.265,0.479,0.434,0.396,0.218,0.192,northwest,2.7,No
2016/02/11,01:10,0.455,0.265,0.479,0.434,0.396,0.218,0.192,west-northwest,3.6,No
2016/02/11,01:20,0.456,0.264,0.480,0.434,0.397,0.217,0.192,west-northwest,4.5,No
2016/02/11,01:30,0.455,0.266,0.478,0.434,0.398,0.218,0.192,northwest,4.1,No
2016/02/11,01:40,0.455,0.265,0.478,0.435,0.396,0.217,0.192,northwest,1.5,No
2016/02/11,01:50,0.455,0.265,0.478,0.432,0.396,0.217,0.192,north-northwest,1.2,No
2016/02/11,02:00,0.455,0.264,0.480,0.432,0.397,0.217,0.192,-,CALM,No
2016/02/11,02:10,0.455,0.264,0.478,0.434,0.397,0.217,0.190,-,CALM,No
2016/02/11,02:20,0.454,0.264,0.480,0.432,0.398,0.218,0.192,north-northwest,1.2,No
2016/02/11,02:30,0.455,0.266,0.480,0.433,0.396,0.218,0.193,west-northwest,1.6,No
2016/02/11,02:40,0.456,0.264,0.478,0.434,0.397,0.217,0.191,west-northwest,3.0,No
2016/02/11,02:50,0.454,0.264,0.480,0.433,0.395,0.219,0.190,west-northwest,3.2,No
2016/02/11,03:00,0.455,0.265,0.478,0.433,0.396,0.217,0.192,west-northwest,4.2,No
2016/02/11,03:10,0.454,0.264,0.479,0.433,0.397,0.218,0.191,west-northwest,5.4,No
2016/02/11,03:20,0.456,0.263,0.480,0.433,0.396,0.219,0.191,west-northwest,5.8,No
2016/02/11,03:30,0.455,0.265,0.478,0.433,0.397,0.218,0.191,west-northwest,5.8,No
2016/02/11,03:40,0.455,0.264,0.479,0.433,0.397,0.218,0.191,west-northwest,4.9,No
2016/02/11,03:50,0.453,0.264,0.478,0.435,0.396,0.218,0.191,west-northwest,2.9,No
2016/02/11,04:00,0.454,0.265,0.479,0.433,0.396,0.217,0.191,west,2.7,No
2016/02/11,04:10,0.454,0.265,0.479,0.432,0.396,0.218,0.192,west,3.8,No
2016/02/11,04:20,0.454,0.264,0.477,0.431,0.397,0.218,0.191,west,4.1,No
2016/02/11,04:30,0.455,0.264,0.477,0.433,0.396,0.217,0.190,west-northwest,4.3,No
2016/02/11,04:40,0.454,0.264,0.478,0.430,0.396,0.218,0.192,west,4.7,No
2016/02/11,04:50,0.455,0.264,0.477,0.431,0.396,0.216,0.191,west,5.7,No
2016/02/11,05:00,0.455,0.264,0.478,0.434,0.395,0.218,0.192,west-northwest,7.3,No
2016/02/11,05:10,0.455,0.264,0.477,0.432,0.398,0.217,0.191,west-northwest,7.0,No
2016/02/11,05:20,0.457,0.265,0.478,0.431,0.396,0.218,0.191,west-northwest,6.1,No
2016/02/11,05:30,0.454,0.264,0.479,0.432,0.396,0.219,0.191,west-northwest,4.5,No
2016/02/11,05:40,0.454,0.265,0.479,0.433,0.396,0.218,0.192,west-northwest,3.1,No
2016/02/11,05:50,0.453,0.265,0.478,0.432,0.395,0.218,0.190,west-northwest,2.9,No
2016/02/11,06:00,0.454,0.264,0.478,0.432,0.395,0.218,0.191,west-northwest,4.0,No
2016/02/11,06:10,0.453,0.264,0.478,0.432,0.395,0.217,0.191,west-northwest,4.3,No
2016/02/11,06:20,0.452,0.263,0.479,0.433,0.396,0.217,0.190,west-northwest,4.0,No
2016/02/11,06:30,0.455,0.264,0.478,0.433,0.395,0.218,0.190,west-northwest,3.8,No
2016/02/11,06:40,0.453,0.264,0.477,0.432,0.396,0.217,0.192,west-northwest,3.4,No
2016/02/11,06:50,0.454,0.264,0.477,0.432,0.395,0.218,0.191,west-northwest,2.6,No
2016/02/11,07:00,0.455,0.265,0.479,0.434,0.396,0.219,0.191,west,1.8,No
2016/02/11,07:10,0.453,0.265,0.479,0.433,0.397,0.217,0.190,west,2.5,No
2016/02/11,07:20,0.453,0.265,0.480,0.434,0.396,0.216,0.192,west-northwest,5.2,No
2016/02/11,07:30,0.454,0.265,0.477,0.431,0.394,0.217,0.190,west-northwest,5.3,No
2016/02/11,07:40,0.454,0.265,0.477,0.431,0.395,0.218,0.190,northwest,3.6,No
2016/02/11,07:50,0.455,0.264,0.479,0.433,0.397,0.218,0.190,northwest,2.1,No
2016/02/11,08:00,0.455,0.263,0.479,0.432,0.397,0.217,0.190,west-northwest,1.0,No
2016/02/11,08:10,0.453,0.264,0.477,0.432,0.396,0.218,0.192,northwest,1.3,No
2016/02/11,08:20,0.454,0.264,0.478,0.431,0.395,0.217,0.191,northwest,0.7,No
2016/02/11,08:30,0.453,0.265,0.478,0.432,0.397,0.218,0.191,north,1.3,No
2016/02/11,08:40,0.456,0.265,0.479,0.432,0.395,0.218,0.191,north-northwest,2.1,No
2016/02/11,08:50,0.455,0.263,0.478,0.431,0.395,0.217,0.190,north,1.4,No
2016/02/11,09:00,0.454,0.263,0.477,0.433,0.395,0.216,0.190,northeast,2.3,No
2016/02/11,09:10,0.456,0.263,0.479,0.433,0.397,0.217,0.190,east-northeast,2.3,No
2016/02/11,09:20,0.455,0.263,0.478,0.431,0.397,0.217,0.190,northeast,3.4,No
2016/02/11,09:30,0.453,0.263,0.476,0.434,0.395,0.217,0.191,northeast,2.7,No
2016/02/11,09:40,0.453,0.263,0.477,0.430,0.395,0.217,0.191,north,3.7,No
2016/02/11,09:50,0.456,0.263,0.479,0.433,0.396,0.217,0.192,north-northwest,8.8,No
2016/02/11,10:00,0.454,0.263,0.477,0.431,0.394,0.217,0.191,north-northwest,8.6,No
2016/02/11,10:10,0.453,0.264,0.479,0.431,0.396,0.218,0.191,north-northwest,9.0,No
2016/02/11,10:20,0.456,0.264,0.480,0.434,0.396,0.217,0.190,north-northwest,9.3,No
2016/02/11,10:30,0.455,0.263,0.478,0.432,0.396,0.217,0.191,north-northwest,9.8,No
2016/02/11,10:40,0.454,0.264,0.477,0.432,0.396,0.218,0.191,north-northwest,10.3,No
2016/02/11,10:50,0.456,0.265,0.477,0.433,0.398,0.218,0.191,northwest,9.2,No
2016/02/11,11:00,0.453,0.263,0.478,0.429,0.396,0.217,0.190,northwest,8.2,No
2016/02/11,11:10,0.455,0.264,0.477,0.432,0.396,0.217,0.191,northwest,8.6,No
2016/02/11,11:20,0.455,0.263,0.479,0.431,0.396,0.218,0.191,northwest,11.1,No
2016/02/11,11:30,0.454,0.264,0.478,0.431,0.396,0.216,0.191,northwest,8.4,No
2016/02/11,11:40,0.457,0.265,0.474,0.430,0.400,0.217,0.191,northwest,6.7,No
2016/02/11,11:50,0.454,0.263,0.479,0.434,0.395,0.218,0.191,north-northwest,4.9,No
2016/02/11,12:00,0.456,0.266,0.475,0.431,0.401,0.218,0.191,north-northeast,4.8,No
2016/02/11,12:10,0.455,0.264,0.477,0.433,0.397,0.218,0.191,north-northwest,5.2,No
2016/02/11,12:20,0.454,0.264,0.476,0.430,0.399,0.218,0.190,north-northeast,6.1,No
2016/02/11,12:30,0.458,0.265,0.479,0.434,0.399,0.217,0.192,northeast,6.7,No
2016/02/11,12:40,0.455,0.264,0.478,0.431,0.398,0.219,0.191,north-northeast,7.6,No
2016/02/11,12:50,0.458,0.264,0.477,0.434,0.400,0.218,0.192,north-northeast,5.2,No
2016/02/11,13:00,0.458,0.265,0.477,0.429,0.397,0.218,0.192,northeast,7.7,No
2016/02/11,13:10,0.457,0.265,0.476,0.436,0.400,0.218,0.192,northeast,6.3,No
2016/02/11,13:20,0.460,0.264,0.479,0.432,0.398,0.218,0.192,northeast,6.6,No
2016/02/11,13:30,0.456,0.264,0.476,0.435,0.400,0.218,0.192,northeast,6.8,No
2016/02/11,13:40,0.456,0.263,0.479,0.434,0.400,0.218,0.191,northeast,6.1,No
2016/02/11,13:50,0.458,0.264,0.475,0.434,0.397,0.217,0.191,northeast,5.3,No
2016/02/11,14:00,0.457,0.264,0.479,0.435,0.400,0.217,0.191,northeast,6.6,No
2016/02/11,14:10,0.455,0.264,0.477,0.433,0.398,0.218,0.191,north-northeast,8.4,No
2016/02/11,14:20,0.458,0.265,0.480,0.435,0.399,0.219,0.192,north-northeast,8.9,No
2016/02/11,14:30,0.456,0.265,0.480,0.432,0.398,0.218,0.191,north-northeast,8.2,No
2016/02/11,14:40,0.459,0.265,0.478,0.434,0.399,0.220,0.192,northeast,7.7,No
2016/02/11,14:50,0.457,0.265,0.481,0.435,0.399,0.217,0.192,north-northeast,7.4,No
2016/02/11,15:00,0.456,0.264,0.479,0.434,0.399,0.218,0.193,north-northeast,8.7,No
2016/02/11,15:10,0.458,0.266,0.480,0.435,0.398,0.218,0.193,north,4.2,No
2016/02/11,15:20,0.459,0.266,0.481,0.436,0.399,0.218,0.191,north,6.2,No
2016/02/11,15:30,0.457,0.267,0.478,0.435,0.399,0.219,0.192,north,5.0,No
2016/02/11,15:40,0.458,0.266,0.478,0.436,0.398,0.218,0.191,north-northeast,6.1,No
2016/02/11,15:50,0.459,0.265,0.480,0.434,0.398,0.218,0.191,north-northeast,6.5,No
2016/02/11,16:00,0.458,0.266,0.478,0.432,0.398,0.218,0.191,north-northeast,5.5,No
2016/02/11,16:10,0.458,0.265,0.478,0.433,0.397,0.217,0.192,north-northeast,4.0,No
2016/02/11,16:20,0.458,0.264,0.478,0.436,0.397,0.218,0.191,northeast,4.2,No
2016/02/11,16:30,0.457,0.265,0.477,0.435,0.398,0.219,0.193,northeast,3.7,No
2016/02/11,16:40,0.457,0.266,0.478,0.436,0.399,0.218,0.192,northeast,3.5,No
2016/02/11,16:50,0.457,0.266,0.479,0.435,0.397,0.218,0.191,north-northeast,1.0,No
2016/02/11,17:00,0.458,0.266,0.478,0.433,0.397,0.218,0.192,-,CALM,No
2016/02/11,17:10,0.457,0.265,0.479,0.433,0.399,0.218,0.191,east-southeast,0.7,No
2016/02/11,17:20,0.456,0.265,0.479,0.435,0.396,0.219,0.192,east-southeast,0.6,No
2016/02/11,17:30,0.457,0.266,0.479,0.435,0.398,0.217,0.191,southwest,0.6,No
2016/02/11,17:40,0.458,0.265,0.477,0.433,0.398,0.218,0.192,southwest,2.9,No
2016/02/11,17:50,0.455,0.265,0.479,0.435,0.398,0.218,0.191,southwest,3.2,No
2016/02/11,18:00,0.455,0.264,0.480,0.434,0.397,0.218,0.191,southwest,3.9,No
2016/02/11,18:10,0.456,0.266,0.478,0.433,0.395,0.218,0.192,southwest,2.9,No
2016/02/11,18:20,0.457,0.265,0.478,0.432,0.397,0.219,0.193,southwest,2.1,No
2016/02/11,18:30,0.455,0.265,0.481,0.435,0.397,0.217,0.191,southwest,1.8,No
2016/02/11,18:40,0.457,0.264,0.478,0.435,0.398,0.219,0.192,west-southwest,1.6,No
2016/02/11,18:50,0.458,0.266,0.478,0.434,0.398,0.218,0.192,west,2.4,No
2016/02/11,19:00,0.457,0.266,0.480,0.434,0.397,0.218,0.191,west-northwest,1.5,No
2016/02/11,19:10,0.456,0.265,0.481,0.434,0.399,0.219,0.191,northwest,0.9,No
2016/02/11,19:20,0.456,0.265,0.480,0.435,0.397,0.218,0.192,north-northwest,1.0,No
2016/02/11,19:30,0.457,0.266,0.479,0.434,0.397,0.219,0.193,north-northwest,1.1,No
2016/02/11,19:40,0.457,0.266,0.479,0.434,0.399,0.219,0.191,northwest,1.7,No
2016/02/11,19:50,0.457,0.266,0.480,0.435,0.399,0.218,0.191,west-northwest,1.7,No
2016/02/11,20:00,0.457,0.264,0.478,0.435,0.399,0.219,0.191,northwest,1.8,No
2016/02/11,20:10,0.457,0.267,0.480,0.434,0.397,0.218,0.192,north-northwest,1.1,No
2016/02/11,20:20,0.456,0.265,0.480,0.434,0.397,0.218,0.192,north-northwest,1.6,No
2016/02/11,20:30,0.456,0.264,0.481,0.433,0.396,0.219,0.192,north-northwest,1.4,No
2016/02/11,20:40,0.454,0.265,0.481,0.433,0.398,0.218,0.191,north,1.6,No
2016/02/11,20:50,0.458,0.266,0.480,0.435,0.398,0.219,0.192,north-northwest,0.9,No
2016/02/11,21:00,0.456,0.264,0.479,0.435,0.398,0.218,0.191,north-northwest,2.0,No
2016/02/11,21:10,0.457,0.265,0.479,0.434,0.396,0.218,0.192,north,1.7,No
2016/02/11,21:20,0.455,0.264,0.480,0.435,0.398,0.218,0.191,north,2.2,No
2016/02/11,21:30,0.454,0.265,0.479,0.435,0.398,0.218,0.192,north,3.2,No
2016/02/11,21:40,0.457,0.265,0.479,0.433,0.398,0.217,0.192,north,2.1,No
2016/02/11,21:50,0.455,0.265,0.480,0.434,0.398,0.219,0.192,north,1.4,No
2016/02/11,22:00,0.457,0.265,0.480,0.434,0.398,0.218,0.192,north,2.1,No
2016/02/11,22:10,0.457,0.265,0.480,0.434,0.398,0.217,0.191,north-northwest,2.4,No
2016/02/11,22:20,0.456,0.265,0.479,0.435,0.398,0.219,0.192,north-northwest,2.7,No
2016/02/11,22:30,0.456,0.265,0.478,0.435,0.397,0.218,0.192,north-northwest,3.9,No
2016/02/11,22:40,0.458,0.265,0.480,0.436,0.397,0.219,0.193,north-northwest,4.3,No
2016/02/11,22:50,0.457,0.265,0.480,0.434,0.398,0.218,0.193,north-northwest,3.4,No
2016/02/11,23:00,0.456,0.265,0.480,0.436,0.397,0.217,0.192,north-northwest,2.8,No
2016/02/11,23:10,0.457,0.266,0.480,0.434,0.397,0.219,0.192,north-northwest,4.1,No
2016/02/11,23:20,0.456,0.265,0.478,0.434,0.400,0.219,0.191,north-northwest,3.9,No
2016/02/11,23:30,0.458,0.265,0.481,0.435,0.398,0.218,0.192,north-northwest,3.0,No
2016/02/11,23:40,0.456,0.264,0.479,0.434,0.398,0.218,0.192,northwest,2.8,No
2016/02/11,23:50,0.456,0.265,0.481,0.433,0.396,0.219,0.193,northwest,2.8,No
